Location: Unspecified
(44.0704°N, 88.6889°W)
Time: 11:27:36
(UTC+02:00)

Vanguard 2 Rocket - Pass Details

Date: 11 August 2020
Orbit: 554 x 3326 km, 32.9° (Epoch: 22 September)

Event Time Altitude Azimuth Distance (km) Brightness Sun altitude
Rises 05:13:07 0° 265° (W) 4,448 11.0 -19.6°
Reaches altitude 10° 05:15:49 10° 258° (WSW) 3,781 10.4 -20.0°
Maximum altitude 05:25:26 42° 192° (SSW) 2,949 9.1 -21.1°
Enters shadow 05:32:32 28° 148° (SSE) 4,067 9.5 -21.9°
